Weather History for KPNC - March, 2013

Change the Weather History Date:

Monday, March 11, 2013

  Actual Average Record
Temperature  
Mean Temperature 38 °F -  
Max Temperature 51 °F 60 °F 90 °F (1967)
Min Temperature 26 °F 37 °F -2 °F (1948)
Degree Days  
Heating Degree Days 26    
Moisture  
Dew Point 20 °F    
Average Humidity 52    
Maximum Humidity 75    
Minimum Humidity 26    
Precipitation  
Precipitation 0.00 in - - ()
Sea Level Pressure  
Sea Level Pressure 30.03 in    
Wind  
Wind Speed 8 mph (NW)    
Max Wind Speed 17 mph    
Max Gust Speed 22 mph    
Visibility 10 miles    
Events      
Averages and records for this station are not official NWS values.
T = Trace of Precipitation, MM = Missing Value Source: NWS Daily Summary

Daily Weather History Graph

Daily Weather History Graph

Search for Another Location

Airport or City:

Trip Planner

Search our weather history database for the weather conditions in past years. The results will help you decide how hot, cold, wet, or windy it might be!

Date:

Astronomy

Mar. 11, 2013 Rise Set
Actual Time 7:44 AM CDT 7:32 PM CDT
Civil Twilight 7:18 AM CDT 7:58 PM CDT
Nautical Twilight 6:48 AM CDT 8:28 PM CDT
Astronomical Twilight 6:18 AM CDT 8:58 PM CDT
Moon 7:19 AM CDT (3/11) 7:44 PM CDT (3/11)
Length of Visible Light 12h 39m
Length of Day
11h 47m
Waning Crescent, 0% of the Moon is Illuminated
Mar 11
Waning Crescent
Mar 11
New
Mar 19
First Quarter
Mar 27
Full
Apr 2
Last Quarter

Hourly Weather History & Observations

Time (CDT) Temp. Windchill Dew Point Humidity Pressure Visibility Wind Dir Wind Speed Gust Speed Precip Events Conditions
12:53 AM 32.0 °F 23.6 °F 23.0 °F 69% 30.05 in 10.0 mi NW 10.4 mph 20.7 mph N/A   Overcast
1:53 AM 32.0 °F 23.6 °F 21.9 °F 66% 30.05 in 10.0 mi NNW 10.4 mph - N/A   Overcast
2:53 AM 30.0 °F 24.1 °F 21.0 °F 69% 30.04 in 10.0 mi NW 5.8 mph - N/A   Partly Cloudy
3:53 AM 28.9 °F 21.1 °F 21.0 °F 72% 30.03 in 10.0 mi WNW 8.1 mph - N/A   Clear
4:53 AM 28.9 °F 22.8 °F 21.0 °F 72% 30.02 in 10.0 mi WNW 5.8 mph - N/A   Clear
5:53 AM 28.0 °F 20.8 °F 19.9 °F 72% 30.02 in 10.0 mi WNW 6.9 mph - N/A   Clear
6:53 AM 26.1 °F 19.4 °F 19.0 °F 75% 30.04 in 10.0 mi WNW 5.8 mph - N/A   Clear
7:53 AM 26.1 °F 18.4 °F 19.0 °F 75% 30.04 in 10.0 mi WNW 6.9 mph - N/A   Clear
8:53 AM 28.0 °F 18.6 °F 19.0 °F 69% 30.05 in 10.0 mi NNW 10.4 mph - N/A   Clear
9:53 AM 30.9 °F 19.4 °F 19.0 °F 61% 30.07 in 10.0 mi NW 17.3 mph 21.9 mph N/A   Clear
10:53 AM 34.0 °F 26.6 °F 19.0 °F 54% 30.06 in 10.0 mi NNW 9.2 mph - N/A   Clear
11:53 AM 37.9 °F 30.5 °F 19.0 °F 47% 30.06 in 10.0 mi NW 11.5 mph - N/A   Clear
12:53 PM 39.9 °F 34.5 °F 17.1 °F 40% 30.04 in 10.0 mi WNW 8.1 mph - N/A   Clear
1:53 PM 44.1 °F 39.0 °F 15.1 °F 31% 30.02 in 10.0 mi NW 9.2 mph 17.3 mph N/A   Clear
2:53 PM 48.0 °F - 16.0 °F 28% 30.01 in 10.0 mi NNW 12.7 mph - N/A   Clear
3:53 PM 48.9 °F - 16.0 °F 27% 30.00 in 10.0 mi NW 5.8 mph 16.1 mph N/A   Clear
4:53 PM 50.0 °F - 17.1 °F 27% 29.99 in 10.0 mi NW 5.8 mph - N/A   Clear
5:53 PM 51.8 °F - 17.6 °F 26% 29.97 in 10.0 mi Variable 5.8 mph - N/A   Clear
6:53 PM 50.0 °F - 18.0 °F 28% 29.99 in 10.0 mi WNW 5.8 mph - N/A   Clear
7:53 PM 48.0 °F - 18.0 °F 30% 30.00 in 10.0 mi Calm Calm - N/A   Clear
8:53 PM 46.0 °F - 21.9 °F 39% 30.01 in 10.0 mi Calm Calm - N/A   Clear
9:53 PM 37.9 °F 34.4 °F 27.0 °F 65% 30.03 in 10.0 mi ENE 4.6 mph - N/A   Clear
10:53 PM 37.9 °F 32.7 °F 24.1 °F 57% 30.02 in 10.0 mi SE 6.9 mph - N/A   Clear
11:53 PM 39.0 °F - 23.0 °F 53% 30.04 in 10.0 mi Calm Calm - N/A   Clear